Wind_Gust
14 16 14 14 15 17 17 14 14 21 21 23 23 21 30 27 18 23 21 20 17 21 13 13 17 19 23 26 28 24 25 25 20 12 14 20 25 29 32 29 28 26 26 24 21 19 19 19 22 23 21 21 21 21 21 21 22 21 20 19 18 17 18 17 16 15 15 14 14 15 14 14 14 15 16 15 16 16 16 17 18 18 19 19 20 20 19 18 18 18 18 19 19 18 17 16 15
17 15 15 13 16 16 17 18 22 17 22 25 25 25 28 24 18 20 17 25 21 18 12 13 26 34 31 29 29 27 29 26 22 27 27 28 28 30 28 28 26 26 23 22 19 19 19 20 21 22 23 23 21 21 21 21 21 21 20 19 18 18 17 16 16 15 14 13 15 15 15 14 15 16 16 15 15 14 13 17 18 19 20 19 19 18 18 17 17 17 18 18 17 17 16 15 14
18 17 17 15 17 19 21 20 24 17 21 24 23 28 21 19 20 19 17 20 17 14 8 17 20 18 21 20 26 25 18 20 23 21 28 24 25 22 26 26 27 25 23 20 21 20 19 20 19 22 24 23 22 22 21 21 20 20 20 19 18 18 17 16 16 14 13 13 15 15 14 14 14 15 16 15 15 14 13 15 19 19 18 18 18 18 17 17 16 16 16 17 17 16 16 15 13
18 18 20 13 20 19 17 16 21 22 23 22 27 23 32 22 14 23 16 11 13 6 9 18 22 25 24 31 29 24 23 21 20 19 22 18 25 27 28 25 22 23 20 21 21 21 20 19 20 22 24 23 23 22 21 21 20 20 19 19 19 18 16 15 15 14 13 13 14 13 14 14 14 14 16 16 15 15 15 15 17 18 17 16 16 16 15 14 14 15 15 16 15 15 15 14 13
18 18 18 18 19 20 22 22 22 23 25 21 23 23 17 13 16 15 16 8 9 9 10 25 25 23 26 22 19 22 22 23 20 18 29 24 25 25 25 22 21 21 21 21 22 24 21 21 20 21 22 24 22 22 21 21 20 20 19 19 19 18 17 16 15 15 14 14 13 13 14 13 13 14 15 16 16 16 16 16 15 16 16 15 15 14 13 12 12 13 14 15 15 15 15 13 12
18 19 16 16 22 20 22 21 22 25 23 24 22 24 12 15 10 17 14 6 9 7 10 14 27 21 28 25 24 24 22 18 21 20 28 23 25 25 24 19 19 20 21 24 23 20 22 19 19 21 21 23 22 22 21 21 21 19 19 19 18 18 17 16 16 16 14 13 12 13 12 12 12 13 15 16 16 17 17 16 16 15 15 15 14 13 13 13 12 13 14 15 16 15 14 12 10
18 17 20 18 23 21 21 21 24 25 26 24 29 27 14 12 16 11 9 9 10 12 19 25 34 27 26 26 30 26 18 21 22 25 22 24 23 24 25 21 22 23 24 23 21 23 23 18 19 19 21 21 22 22 21 21 21 20 19 19 18 18 18 17 16 16 14 13 13 13 12 12 13 16 17 17 18 18 17 16 16 15 14 13 14 14 14 14 14 15 15 15 15 14 12 11 8
18 21 15 20 20 22 23 24 25 25 26 27 24 21 15 9 13 9 9 9 16 19 18 17 25 35 19 17 26 23 29 30 28 27 27 23 21 19 19 23 23 24 23 21 20 22 24 19 19 20 21 20 21 21 21 21 21 20 19 18 18 18 18 17 16 16 14 13 13 13 12 12 14 16 18 17 18 17 16 15 15 14 13 13 13 13 13 14 15 15 15 14 13 13 12 10 8
19 21 15 23 22 23 23 25 24 24 28 27 28 26 14 14 8 9 9 12 13 13 19 21 30 32 24 26 25 23 30 25 25 24 26 23 19 16 19 22 26 25 23 22 22 23 22 17 18 19 19 19 20 21 20 20 20 20 19 19 19 17 18 17 16 16 15 13 12 12 12 12 12 14 16 17 17 15 14 14 13 13 12 13 13 13 13 14 14 14 14 13 13 13 12 9 8
20 19 19 24 18 23 23 24 25 22 27 25 24 26 17 17 15 12 15 15 10 8 20 20 27 31 28 27 25 17 24 22 24 23 20 19 19 18 17 21 27 27 23 24 24 26 25 24 19 19 17 19 20 19 19 19 19 19 20 20 19 16 17 17 15 15 15 14 13 12 11 12 12 11 12 15 16 14 14 13 12 12 12 12 12 13 13 13 13 13 13 13 12 12 11 8 7
24 22 18 22 21 22 23 22 23 23 23 22 23 18 14 10 9 11 13 17 15 14 24 30 35 29 26 23 25 21 20 21 22 21 17 17 17 17 19 20 25 24 28 27 26 25 26 25 24 19 19 21 20 19 19 19 20 20 19 18 17 18 18 16 15 16 15 15 14 13 14 14 13 12 13 14 13 12 12 13 11 11 11 11 11 11 12 13 12 12 13 12 12 11 9 7 7
22 20 21 21 21 22 21 23 22 23 21 21 24 9 16 13 11 13 12 18 17 15 18 26 28 34 26 25 21 19 19 19 19 18 18 17 20 18 20 17 20 21 23 22 19 18 21 22 23 24 22 22 20 20 20 21 21 20 20 20 18 17 16 15 15 14 13 13 13 13 14 13 12 12 12 13 12 11 11 12 10 10 10 10 10 11 11 12 12 12 12 12 12 10 8 6 6
24 18 21 22 21 21 23 25 24 22 20 16 17 16 11 15 9 12 13 17 11 16 17 29 31 29 23 21 19 15 19 19 17 19 16 18 18 18 21 19 18 17 17 18 20 21 22 21 21 20 17 18 14 15 15 17 17 16 16 17 16 17 16 15 15 14 15 15 13 14 13 12 12 12 11 11 11 11 11 11 10 9 9 9 9 9 11 12 12 13 12 12 12 11 9 6 5
24 20 21 24 19 22 24 23 23 17 20 15 14 21 14 12 11 14 16 16 14 19 24 32 35 33 26 25 18 17 21 18 20 17 18 19 19 22 21 18 18 19 16 15 22 22 20 18 18 16 17 14 12 13 13 13 13 12 10 11 12 13 13 13 12 12 15 16 15 13 13 12 12 11 11 10 10 10 7 9 10 9 8 8 8 9 10 11 12 13 12 12 12 11 10 7 5
24 18 22 22 23 20 20 27 20 16 21 21 25 18 15 13 12 17 18 15 19 28 24 30 37 31 25 24 20 20 21 22 20 21 20 20 21 21 17 18 18 14 15 16 19 19 19 18 19 17 15 15 14 10 9 12 14 12 10 9 10 10 10 11 11 12 15 16 16 15 14 13 12 12 11 10 9 9 8 8 9 8 8 8 7 8 9 11 12 12 12 12 13 12 10 8 5
21 21 22 21 22 20 22 22 17 22 19 20 19 15 12 13 10 12 19 16 20 20 17 25 18 23 27 20 25 27 26 22 20 21 23 21 22 18 17 16 15 13 16 17 16 18 16 17 17 17 16 13 11 11 11 12 14 15 12 11 11 10 11 11 9 10 15 16 16 16 15 14 13 13 14 13 11 10 9 9 9 8 8 7 7 8 10 10 12 12 12 12 13 12 11 7 5
17 20 21 21 22 21 21 23 14 27 16 18 12 16 17 18 13 17 16 20 26 27 33 33 27 27 27 29 29 27 24 23 23 22 21 22 20 17 15 15 15 12 12 15 15 17 17 16 16 16 15 17 13 13 11 11 13 14 11 12 12 11 11 12 10 10 12 13 14 12 12 12 10 10 12 11 13 12 10 9 12 9 7 7 7 8 9 11 12 13 12 12 13 13 11 9 6
19 22 21 21 20 23 22 24 14 17 14 16 11 13 15 16 18 19 13 22 27 29 31 34 32 29 30 29 28 26 25 25 22 21 19 17 16 17 16 16 15 14 13 12 12 16 17 16 16 13 14 15 13 12 12 12 13 12 12 10 10 9 9 10 9 10 13 11 11 12 12 11 11 10 11 13 12 12 11 10 12 10 7 7 6 8 9 10 12 12 12 13 13 13 14 8 6
22 20 22 24 21 27 25 21 19 27 16 16 15 9 13 14 19 19 19 24 27 31 30 29 29 27 27 26 26 25 22 21 19 19 19 18 17 17 17 16 15 16 16 16 15 16 16 15 15 15 14 13 13 12 13 12 14 11 12 13 11 9 9 9 7 11 10 10 12 13 12 9 10 10 9 12 11 12 12 12 12 10 8 8 8 9 9 10 11 12 13 13 14 15 13 8 8
21 22 23 25 23 23 23 19 15 13 16 14 16 16 14 9 22 24 23 16 31 29 29 25 28 25 25 25 22 22 19 19 19 18 17 17 16 17 16 16 17 16 16 15 15 13 15 12 10 11 14 13 13 13 12 13 13 11 11 11 9 9 10 10 8 9 8 9 11 10 12 17 19 12 13 17 14 11 12 12 13 11 10 9 9 8 9 10 12 12 12 13 10 9 10 10 10
21 26 25 22 23 26 25 22 16 11 9 15 15 11 12 12 11 19 20 17 24 23 29 31 28 27 26 24 22 21 18 16 19 18 17 16 14 14 15 16 16 18 17 15 13 14 11 11 11 12 11 11 10 10 10 9 9 8 10 11 9 9 8 8 8 10 9 11 14 16 19 18 20 22 20 10 9 8 8 8 9 8 7 7 9 6 7 12 10 11 10 10 8 10 12 12 12
19 23 23 27 22 22 18 18 12 12 13 13 8 16 18 18 7 16 16 16 11 17 24 30 28 25 29 25 22 21 19 17 17 17 17 17 15 14 16 15 15 15 15 10 11 17 11 11 9 9 10 7 8 10 11 10 10 8 8 9 10 8 8 12 15 15 15 12 11 18 17 13 12 18 19 12 7 10 10 10 9 9 8 8 10 8 9 8 10 10 10 10 10 11 11 13 11
27 19 22 29 28 27 25 23 18 13 17 16 11 15 18 12 11 14 25 22 23 33 34 32 26 22 22 22 22 18 16 15 14 14 17 17 17 15 17 14 15 14 10 11 8 12 12 10 10 9 9 8 9 9 9 9 8 10 12 15 14 14 11 13 11 10 10 8 11 16 14 9 10 11 16 17 10 11 11 10 12 10 9 9 10 10 8 9 10 9 9 10 10 11 13 14 13
22 26 18 25 24 23 20 17 9 15 13 16 21 16 13 14 18 21 26 28 29 27 26 27 25 24 23 24 17 17 16 17 13 14 18 16 18 17 16 15 15 13 13 13 13 14 12 11 8 9 8 9 8 7 10 10 8 11 12 15 14 11 15 12 10 12 8 12 12 9 10 11 10 12 10 12 18 16 11 10 11 12 11 9 9 9 10 9 10 9 10 10 12 13 15 15 13
25 28 21 20 21 18 18 11 7 13 19 19 15 11 18 13 17 18 24 28 29 27 25 25 25 22 22 18 16 15 15 19 20 19 18 18 18 19 17 17 15 16 16 13 15 15 10 10 9 9 8 9 9 8 8 8 9 11 11 13 13 13 15 12 10 13 13 9 10 10 10 10 10 10 10 12 15 16 17 13 12 12 12 11 11 11 10 8 10 10 9 11 11 12 12 13 14
26 22 22 22 21 21 24 14 12 12 18 19 16 15 16 21 15 20 25 25 29 27 26 24 24 25 23 19 17 17 20 21 20 20 20 19 19 17 13 14 15 14 15 16 17 13 11 8 10 10 9 9 8 7 8 9 8 8 10 13 14 14 14 14 13 13 12 9 9 10 11 11 10 10 11 17 8 14 13 14 15 10 13 13 11 10 11 9 10 10 8 8 12 11 13 13 8
19 23 24 25 23 19 16 22 17 15 17 15 20 17 19 18 12 25 25 29 28 27 26 24 23 22 21 19 19 17 19 20 19 18 18 19 18 15 14 14 14 13 15 15 17 17 15 11 12 11 9 9 8 11 9 8 7 9 9 11 13 15 15 15 14 13 10 11 12 11 10 11 10 11 12 13 10 10 11 12 17 18 15 11 13 13 11 11 9 10 9 9 9 9 9 7 7
25 23 24 25 25 21 17 17 18 17 21 20 19 20 21 15 20 21 26 28 29 28 25 24 24 22 22 19 19 16 16 15 18 17 17 15 14 15 13 16 15 13 14 13 13 15 12 12 12 12 12 10 10 9 8 8 7 8 10 11 11 13 14 12 12 11 11 13 12 14 10 8 9 9 10 12 12 11 10 12 13 15 19 17 14 14 15 12 11 12 10 10 9 10 10 9 6
25 23 20 20 24 31 20 22 21 20 24 20 20 21 24 19 25 21 25 28 30 28 26 24 26 24 22 19 17 16 14 12 12 14 14 14 13 13 14 13 16 13 11 12 15 16 14 15 15 13 13 11 10 9 9 8 8 8 10 9 10 11 12 11 12 11 11 8 10 10 9 9 9 11 12 12 12 11 12 13 12 10 16 22 19 16 17 15 13 12 12 11 10 6 8 11 10
21 20 22 21 24 29 24 20 19 22 25 22 20 27 24 24 25 27 23 26 28 28 26 24 26 25 21 21 17 15 12 13 14 14 14 15 14 14 15 14 14 13 13 13 13 13 11 11 12 14 13 12 11 8 8 7 7 7 8 8 8 8 10 11 10 9 7 8 9 8 9 10 9 9 10 10 11 11 13 14 12 13 15 18 23 20 21 22 20 15 14 14 9 9 8 9 9
28 22 21 24 23 28 25 26 21 25 20 23 23 24 21 22 28 24 22 24 26 24 23 21 27 24 21 18 18 15 13 12 14 14 14 14 13 13 13 14 13 13 14 13 16 13 11 14 15 16 15 12 12 9 9 7 8 7 7 8 10 9 9 12 14 13 11 10 11 12 11 9 9 9 10 12 13 12 12 11 11 11 13 15 12 21 21 23 24 22 20 19 10 8 11 7 8
26 28 30 24 27 21 26 26 25 26 25 24 25 26 21 25 26 23 21 19 22 28 32 29 23 22 18 17 17 15 14 13 15 13 14 13 12 14 13 13 13 14 14 14 15 14 15 15 15 17 16 15 15 16 13 10 10 7 8 7 7 7 9 10 12 12 11 10 11 11 11 10 8 8 7 8 9 9 9 9 9 8 8 13 14 22 21 22 22 19 19 21 10 15 16 11 7
27 28 21 27 26 25 26 31 26 27 29 25 27 29 27 25 26 24 19 20 30 31 27 26 28 27 22 19 14 15 15 14 17 19 21 15 14 12 12 14 14 13 14 14 16 16 14 13 14 14 14 12 12 11 9 8 6 8 7 8 7 8 7 9 12 10 9 10 11 9 7 7 7 6 6 7 9 9 8 7 6 7 9 9 14 14 16 17 17 21 16 17 12 15 12 11 17
29 28 28 23 26 26 28 30 30 29 29 28 31 35 23 21 31 26 23 24 29 30 27 27 27 24 21 23 16 16 16 16 20 20 17 14 15 15 16 15 13 13 14 15 14 15 14 12 10 11 10 7 6 7 8 6 7 7 7 7 7 8 9 10 10 10 8 9 8 8 7 7 7 6 5 5 6 7 7 7 8 6 8 9 11 10 12 11 14 19 15 11 12 13 11 8 14
25 25 25 27 25 25 25 35 33 30 33 26 29 29 23 20 28 26 22 27 30 29 32 30 26 23 21 21 20 18 17 19 16 17 16 14 14 15 16 15 13 13 13 16 14 13 12 9 9 10 8 8 7 6 7 6 4 6 7 7 6 8 9 10 9 9 9 9 10 10 9 9 8 8 7 6 8 6 7 7 7 7 9 10 10 10 9 9 15 17 13 11 20 22 16 11 16
26 24 25 25 24 28 37 25 31 32 33 29 29 30 26 17 19 21 21 21 29 27 28 27 26 28 29 25 24 19 17 16 14 13 14 14 16 15 15 17 15 14 13 13 13 12 12 10 10 10 8 8 6 6 9 11 10 8 7 6 5 8 8 8 9 9 8 9 9 9 9 9 10 8 8 7 7 8 7 8 8 9 8 9 12 12 10 10 11 15 13 16 21 20 19 14 10
24 24 24 28 28 25 30 25 31 33 32 28 28 28 25 22 19 18 19 16 28 27 26 26 25 26 26 21 20 21 16 17 13 16 15 16 17 18 17 17 16 15 15 15 14 11 11 9 9 11 9 8 10 10 11 9 8 7 4 5 8 10 11 9 8 9 10 10 8 10 10 9 9 8 7 8 8 9 10 8 7 6 7 9 9 9 8 7 7 7 10 19 19 21 19 14 13
28 24 25 27 28 27 27 28 33 34 27 27 26 27 24 21 21 22 20 19 27 28 26 24 26 25 20 23 21 18 18 18 20 17 15 17 18 17 17 16 13 16 14 14 13 12 12 8 8 9 7 7 8 7 8 5 6 7 9 11 8 8 10 9 10 10 12 10 10 9 9 8 9 9 8 7 6 7 8 9 10 9 9 9 8 6 6 7 8 7 8 8 12 23 20 15 17
32 29 23 25 29 28 24 28 34 32 31 26 29 23 23 21 19 17 14 15 23 25 27 25 26 25 25 24 19 20 19 18 17 16 14 17 18 17 16 13 13 13 13 13 11 11 10 11 10 10 8 7 7 9 8 8 6 4 4 5 5 7 7 6 8 6 6 9 8 9 10 9 9 9 9 8 9 10 10 10 11 9 9 9 9 9 7 8 8 8 9 10 8 20 21 11 15
30 31 27 29 26 29 28 30 36 30 35 25 26 23 20 18 15 16 17 28 25 27 31 31 31 29 24 22 18 22 19 19 17 17 17 16 17 16 14 14 14 13 12 12 11 10 9 8 8 7 9 10 11 12 11 12 6 3 3 5 6 8 8 6 6 6 6 6 9 9 9 6 7 7 8 9 9 9 10 10 9 9 9 10 11 11 10 11 9 8 9 9 10 10 19 11 11
30 30 32 30 27 29 27 29 36 29 26 23 30 26 24 19 20 21 20 29 28 28 30 27 24 23 24 20 18 17 20 19 18 17 15 16 18 17 15 13 12 13 13 13 11 10 8 9 7 6 6 6 9 9 8 8 6 7 7 7 8 7 8 9 9 10 11 10 11 10 11 10 12 11 10 10 10 9 11 10 11 9 9 10 10 11 11 12 10 10 11 11 12 12 10 13 13
29 29 31 28 24 29 31 22 31 31 33 34 29 29 25 24 23 21 20 31 28 26 27 24 25 26 29 26 19 16 17 15 17 17 16 16 19 16 15 13 13 14 14 12 10 10 8 8 6 4 4 3 3 4 5 6 7 8 9 9 8 9 10 9 11 12 10 10 12 9 9 12 12 11 11 11 13 12 13 13 12 11 10 10 11 12 11 8 9 10 12 12 13 10 12 10 14
28 31 28 32 28 30 28 24 27 29 33 31 29 32 25 22 26 25 22 27 26 23 26 24 22 24 25 24 18 20 18 16 17 17 17 17 18 18 18 17 18 17 14 11 9 8 8 8 6 5 4 6 6 7 8 5 5 6 6 8 9 9 8 10 7 9 10 9 8 8 10 9 11 12 11 10 10 9 10 11 13 12 11 11 10 11 12 13 11 11 10 11 12 11 10 13 15
34 21 28 28 31 29 30 28 29 25 23 24 30 30 28 28 28 27 26 26 26 24 23 24 25 23 22 20 21 20 21 17 18 18 17 17 18 18 16 15 17 16 12 11 11 10 11 11 9 10 9 11 12 13 11 13 7 5 4 5 5 7 6 7 6 6 6 5 4 5 6 7 9 9 8 10 11 10 9 10 13 14 13 12 12 13 14 12 10 9 11 13 11 12 14 16 14
32 24 26 28 32 29 26 29 29 25 22 29 32 28 28 25 26 27 30 30 26 26 23 24 25 23 22 22 22 20 19 19 18 18 17 18 18 17 16 16 15 15 14 14 12 11 11 11 10 11 13 11 11 12 12 13 10 10 10 8 8 7 7 8 8 6 4 3 5 5 5 5 6 8 8 10 11 13 10 13 14 12 12 12 12 11 11 12 13 12 11 12 14 14 15 14 17
28 26 24 30 29 29 25 31 32 27 27 28 30 32 27 23 24 31 30 27 28 27 23 23 23 21 20 21 20 20 19 18 19 19 18 18 16 16 14 14 15 13 12 11 11 11 12 12 13 12 12 12 12 13 14 13 13 12 11 11 10 10 10 10 8 10 7 5 6 7 5 6 6 6 7 8 8 10 10 10 11 13 14 13 13 15 14 14 13 14 14 13 13 14 14 15 18
25 30 27 31 30 27 23 29 31 23 23 30 28 31 33 26 25 30 33 31 31 25 20 21 23 21 20 19 18 19 18 18 17 17 18 17 15 14 13 15 15 13 11 13 13 12 12 12 12 13 13 13 14 13 14 14 13 13 14 14 13 13 13 11 12 11 10 10 9 9 9 8 7 6 6 6 7 8 8 10 11 11 11 13 13 14 15 15 14 13 12 11 12 15 15 15 15
32 32 28 24 24 24 23 26 22 26 25 29 30 29 33 30 27 28 21 25 33 31 28 26 24 22 22 18 20 19 17 16 16 17 17 17 16 15 14 15 15 13 12 12 11 11 10 10 11 12 12 13 13 14 14 15 15 15 15 15 14 14 13 14 13 12 10 10 10 9 8 8 11 9 7 7 7 8 11 10 10 11 12 10 13 11 11 12 12 12 12 13 13 13 13 15 16
36 28 23 26 26 22 27 33 26 28 32 27 31 29 33 38 19 28 28 32 30 28 32 29 27 24 22 19 18 17 17 16 16 17 16 15 14 13 13 13 12 12 12 12 12 9 10 9 10 10 11 10 11 13 13 15 15 15 16 16 15 15 14 13 12 12 9 11 11 10 9 8 9 13 12 11 9 9 8 10 11 11 10 10 10 11 12 12 12 12 13 14 12 14 15 15 15
34 34 29 33 34 28 19 28 24 26 29 23 29 27 31 20 21 28 23 32 29 28 27 25 25 26 23 20 18 16 16 16 16 16 15 15 15 13 13 13 13 11 11 9 8 8 8 9 9 12 13 13 12 10 12 14 15 16 16 16 16 16 16 15 14 13 11 10 10 9 9 8 8 9 12 10 10 9 11 9 9 9 10 10 11 12 13 14 12 13 12 13 14 16 14 15 17
36 29 33 29 32 37 25 36 31 29 27 29 22 31 16 19 11 19 24 27 31 30 29 24 24 22 20 20 18 16 16 13 14 15 15 14 14 14 12 12 10 11 11 10 9 11 9 10 11 14 14 14 14 12 11 13 13 14 16 16 16 17 17 16 15 12 13 12 11 10 10 8 8 8 9 10 8 7 10 8 13 13 11 11 10 10 12 12 12 13 14 13 14 13 14 16 15
32 31 27 32 31 22 27 20 26 29 28 25 21 14 10 19 17 19 26 29 28 27 27 25 24 21 20 20 17 16 16 16 15 15 15 14 13 12 11 11 11 9 10 8 8 7 6 7 11 15 17 15 15 14 13 12 11 9 10 13 15 16 16 16 15 14 14 13 12 10 10 9 7 8 8 8 9 10 11 11 9 11 10 13 13 12 12 12 13 13 16 13 15 14 15 16 15
33 32 35 32 27 29 10 9 13 12 18 14 22 19 18 16 15 20 22 24 24 24 25 24 23 21 18 18 16 15 15 14 14 15 15 14 13 13 13 12 10 8 7 7 8 8 8 11 13 15 16 15 15 15 14 13 12 10 10 11 12 13 15 16 16 15 16 15 13 12 11 10 9 7 9 6 7 6 9 10 11 9 7 9 13 16 14 12 13 12 13 13 15 14 16 17 16
30 36 29 24 25 24 22 23 14 12 21 16 16 24 20 21 19 19 21 22 20 21 23 24 23 21 20 17 16 15 14 15 14 14 14 14 13 13 12 10 12 10 9 8 8 6 8 9 10 11 13 14 14 14 12 12 15 13 12 12 11 12 14 15 16 16 16 15 16 16 14 14 13 11 10 8 7 8 7 9 9 9 7 9 14 10 12 12 14 14 13 14 14 14 16 14 13
29 31 26 37 25 29 23 20 19 23 24 20 20 26 28 23 21 24 25 25 22 22 23 23 21 20 21 18 17 16 14 14 13 13 14 14 13 11 11 10 11 11 9 8 9 11 10 12 10 12 12 13 11 9 9 9 11 11 12 13 13 12 12 15 16 17 17 17 18 18 17 16 15 14 11 10 9 8 8 7 7 8 8 9 11 12 14 13 13 15 14 15 15 14 16 15 13
33 24 32 27 21 24 19 24 15 26 18 16 15 20 19 21 30 30 29 29 28 26 24 22 22 20 20 19 16 15 15 14 14 14 13 13 12 12 12 10 12 10 9 8 8 10 13 9 12 13 13 15 12 9 6 7 7 10 11 12 12 14 14 15 16 17 18 18 19 19 18 15 17 16 15 14 10 9 7 8 7 7 10 9 9 11 11 11 12 13 13 14 13 13 14 13 13
37 33 34 32 28 16 25 26 31 24 23 21 19 18 19 12 27 32 33 33 30 29 26 23 23 21 19 17 16 16 15 15 14 13 12 12 13 12 12 10 11 10 10 8 10 12 9 13 8 14 17 13 12 11 6 9 9 11 12 11 12 12 13 14 14 15 17 19 19 17 17 16 15 17 18 19 18 15 11 9 12 12 10 11 10 10 14 13 13 14 14 14 14 13 13 12 11
34 34 34 32 30 29 32 28 32 30 27 24 23 16 17 10 12 25 33 34 31 28 28 24 21 21 19 18 16 16 16 14 13 12 12 11 12 13 10 12 14 12 10 10 11 11 13 13 17 18 17 15 12 14 11 10 12 11 13 14 13 15 14 16 14 15 17 18 19 19 18 18 16 16 17 20 21 20 18 15 10 10 11 13 12 11 9 9 13 14 14 13 13 12 13 12 12
Wind_Speed
5 5 4 4 3 4 3 1 1 1 1 5 4 3 6 4 7 9 8 2 5 3 2 8 12 10 8 11 16 12 8 3 3 5 5 3 12 17 18 18 15 14 15 10 10 10 11 14 18 19 17 17 16 16 16 16 17 16 16 15 15 14 14 13 12 12 11 11 11 11 11 11 11 13 12 12 13 13 13 14 14 14 15 15 15 14 14 13 14 14 14 14 14 13 12 11 10
4 4 4 4 4 0 2 1 0 3 0 4 8 4 12 13 4 10 5 9 3 1 5 8 17 20 21 18 14 17 14 11 10 11 11 12 14 13 17 17 15 16 12 11 11 9 11 12 17 18 19 18 17 17 17 16 16 16 16 15 15 14 14 13 12 11 10 11 11 10 10 11 12 13 12 12 12 12 10 13 14 14 14 14 14 13 13 13 13 13 14 13 12 12 11 10 9
4 5 7 2 2 1 2 1 1 2 4 6 7 7 11 8 2 8 4 7 5 5 6 12 14 11 12 11 12 13 4 9 13 11 11 13 14 9 15 16 14 15 14 10 10 10 9 12 16 17 20 19 18 17 17 16 16 16 15 15 14 14 13 13 13 11 9 10 12 11 11 11 12 13 12 12 12 11 10 12 14 14 14 14 14 13 13 12 12 12 12 12 11 11 10 9 8
3 3 3 3 2 2 1 1 2 3 5 6 6 11 9 6 2 3 2 5 4 3 3 9 11 4 14 17 14 14 9 6 9 11 5 6 10 13 14 15 14 12 11 10 10 10 9 13 16 18 19 19 18 17 16 16 16 15 15 14 14 14 13 12 12 12 10 10 11 10 11 11 11 12 13 13 13 12 12 12 13 13 13 12 13 12 11 11 11 11 11 11 11 9 8 7 6
3 3 3 2 1 1 1 2 3 3 8 4 6 11 7 5 3 3 3 0 5 4 5 11 8 9 12 10 4 3 5 8 8 7 9 12 15 14 14 15 13 13 12 11 11 10 10 17 16 16 17 18 17 17 16 16 16 15 14 14 14 14 13 12 12 12 11 11 11 11 11 11 11 12 12 13 13 13 13 12 11 13 12 12 12 11 10 9 9 10 11 10 9 9 6 6 5
5 4 3 2 2 1 2 2 4 7 8 4 6 10 4 3 2 6 2 3 4 4 1 9 11 8 10 11 5 9 13 7 9 10 12 11 16 16 14 12 12 12 12 11 11 9 9 15 15 15 15 17 16 16 15 16 16 15 14 14 14 14 13 13 13 13 12 11 10 10 10 10 10 11 12 13 12 13 12 11 11 11 11 11 10 10 10 9 9 9 10 10 9 7 5 4 4
2 1 2 1 3 0 3 3 7 6 9 8 13 12 8 3 1 3 3 5 2 3 15 11 18 16 12 4 12 8 9 13 8 11 11 13 14 12 12 11 14 13 12 10 9 10 10 13 14 14 15 16 16 15 15 15 15 14 14 14 14 14 14 13 13 13 11 10 10 10 10 10 11 13 14 13 12 12 12 11 11 11 10 10 11 10 10 11 10 10 10 10 8 5 5 4 5
3 1 2 3 2 2 3 6 7 5 10 10 13 9 4 3 2 1 1 3 0 1 12 10 13 18 10 9 10 8 14 11 15 18 17 12 12 9 10 14 14 12 11 9 9 10 14 13 13 14 14 14 16 15 15 14 14 13 14 13 13 12 12 12 12 11 10 10 10 10 10 10 11 13 15 14 14 13 12 11 11 10 10 10 10 11 10 11 11 10 9 8 7 5 5 5 6
2 3 2 2 3 1 3 6 9 8 12 11 16 15 12 5 3 2 4 3 2 6 4 14 17 17 5 16 11 7 10 13 14 15 16 14 11 10 10 13 13 11 11 9 9 9 10 11 11 12 12 13 13 13 13 13 12 12 12 12 11 9 10 11 10 10 9 8 9 10 10 10 10 12 13 14 13 12 11 11 10 10 10 10 10 10 10 10 10 9 8 7 6 5 5 5 6
2 4 2 2 2 5 6 7 7 11 13 15 14 17 8 4 4 3 2 6 3 3 4 14 17 17 15 16 11 7 8 12 13 13 12 11 10 10 11 11 13 14 11 10 9 9 9 14 11 10 10 11 11 10 11 10 10 10 10 10 9 7 8 9 8 9 8 8 8 8 9 9 9 9 10 12 13 12 11 11 10 9 9 10 9 10 10 10 9 9 7 7 5 5 5 5 5
3 3 2 2 3 5 6 7 9 10 9 10 14 9 7 4 6 4 5 3 4 2 18 21 16 17 15 10 7 6 10 12 13 12 10 9 10 12 11 11 12 12 12 11 10 9 9 9 15 11 10 10 9 8 9 8 9 8 8 8 6 8 8 7 8 9 8 8 8 9 9 9 8 8 10 11 11 10 10 10 9 8 9 9 9 8 9 9 8 8 7 5 5 4 4 4 5
3 4 2 3 4 5 6 7 9 10 11 11 11 4 3 7 4 2 3 4 4 5 12 14 7 17 14 11 6 8 9 9 10 11 11 9 11 12 11 10 12 11 12 11 10 9 9 9 8 13 13 11 9 9 8 9 9 8 8 7 6 7 7 7 7 7 7 7 7 8 8 8 8 8 9 9 8 9 9 9 8 7 8 8 8 8 7 9 8 7 5 4 4 4 3 4 3
5 3 3 2 3 4 9 10 10 11 10 7 5 2 5 9 5 2 2 5 4 9 3 18 18 14 7 7 5 8 10 6 10 12 10 11 11 11 10 11 12 12 11 11 11 9 9 8 8 7 10 15 11 10 10 10 10 9 8 8 7 8 8 7 7 7 8 8 10 9 7 6 7 8 8 8 8 7 7 7 7 7 7 7 7 7 7 7 8 7 5 3 3 3 3 2 3
4 4 2 4 4 5 7 9 7 6 8 7 1 5 4 5 4 2 3 4 3 2 14 19 13 19 13 10 7 7 7 8 13 11 10 11 11 12 12 11 12 12 11 10 10 9 8 9 7 7 8 7 6 9 10 11 10 9 8 7 7 8 8 7 7 7 8 9 9 8 8 7 7 7 6 5 5 5 4 5 5 5 5 6 6 6 6 7 7 7 5 3 2 1 1 1 3
7 3 2 3 5 3 4 6 8 6 7 2 0 3 4 5 7 3 4 4 2 18 10 12 16 18 8 14 7 9 9 12 13 13 11 12 13 12 12 11 11 10 10 10 10 9 9 10 8 7 7 6 6 5 4 8 11 10 8 8 8 8 7 8 8 8 8 9 9 8 7 7 6 5 5 4 4 4 3 4 4 4 4 4 5 4 5 5 6 6 5 3 2 1 1 1 3
5 3 2 3 5 4 7 6 7 8 4 5 3 4 5 2 2 3 3 6 4 7 9 3 2 4 16 10 16 15 15 14 12 13 13 14 13 11 11 10 8 8 10 10 9 9 9 9 8 7 6 7 6 5 6 5 10 12 10 9 9 9 9 9 8 8 9 8 9 8 7 4 5 3 4 3 3 1 2 2 1 2 2 3 3 3 3 5 5 5 5 4 3 3 2 2 2
4 3 3 3 7 5 6 4 3 7 3 3 0 2 2 2 1 1 2 13 16 12 14 9 12 14 13 14 19 18 14 15 14 14 13 11 10 8 8 7 6 6 6 9 9 9 9 8 8 6 6 8 7 6 4 4 7 10 8 9 10 9 9 9 8 9 8 7 7 7 6 4 3 3 3 2 1 1 1 0 1 1 1 1 1 2 3 3 4 5 4 4 4 4 3 4 3
3 4 4 6 6 9 8 7 3 1 4 4 6 2 1 2 4 3 4 15 17 16 16 15 19 16 19 18 17 16 17 17 14 14 11 10 9 8 8 6 7 6 6 6 6 7 8 7 7 6 7 7 5 4 4 4 4 7 4 4 4 6 7 8 5 4 6 3 7 5 3 2 2 2 0 1 1 1 1 3 2 1 1 1 1 1 2 3 4 4 4 4 4 4 5 2 3
4 3 4 8 6 12 6 8 5 3 3 3 2 3 3 2 7 3 2 16 17 15 14 17 18 17 18 17 16 15 15 14 13 13 13 11 10 11 9 7 7 6 6 5 6 8 8 7 6 6 6 5 6 4 5 5 5 4 4 4 4 5 4 4 3 3 3 3 4 4 2 2 1 3 4 3 2 1 0 2 2 1 1 2 1 1 3 4 4 4 5 5 4 5 3 4 3
5 3 6 8 8 10 12 9 5 2 2 7 6 5 3 2 6 5 3 10 21 17 13 15 17 16 16 15 14 14 13 13 13 12 12 11 10 11 10 9 9 7 6 5 6 6 7 6 5 7 7 6 6 5 5 5 5 4 5 4 5 4 4 3 2 2 2 3 3 4 4 2 1 1 3 4 6 1 1 1 3 3 2 2 2 2 4 4 5 6 6 6 4 3 3 4 5
3 6 5 6 7 10 14 13 10 1 4 4 6 6 3 2 2 5 8 5 15 14 18 20 19 18 18 16 14 12 12 11 13 12 12 11 10 8 8 9 8 6 5 4 3 4 6 6 6 8 7 6 6 6 6 5 4 5 5 5 5 5 4 4 4 3 4 6 6 4 4 1 1 2 3 5 2 4 3 1 1 1 1 1 2 1 2 2 2 2 3 4 4 4 4 5 5
2 9 10 11 10 8 9 11 10 2 4 2 4 6 5 8 2 3 2 8 1 8 10 20 19 17 20 17 15 11 10 11 12 12 12 12 10 8 7 6 6 6 4 5 4 6 7 5 5 6 5 4 5 6 6 5 5 5 5 5 5 4 4 4 3 3 2 3 4 4 3 3 3 3 3 0 1 3 4 4 3 2 2 2 2 4 3 3 3 4 4 4 5 4 4 5 6
8 4 6 11 10 10 10 12 9 5 2 4 2 4 5 6 2 7 17 7 5 19 17 18 18 15 14 14 14 12 9 10 8 10 10 12 9 8 8 7 7 7 5 4 4 6 6 4 5 6 6 5 5 5 5 5 5 6 6 8 6 3 4 4 2 3 4 3 4 3 3 2 1 2 3 2 0 1 2 4 5 4 3 3 3 5 5 4 4 5 5 5 4 5 6 5 7
8 5 5 10 9 11 11 11 6 4 6 2 2 4 3 7 4 8 15 14 18 17 17 16 16 16 16 14 12 12 11 13 7 8 8 12 12 11 10 9 7 7 5 5 6 6 5 5 5 5 5 5 4 5 6 5 5 6 7 7 6 4 4 1 4 3 3 3 5 4 2 3 3 3 2 2 2 2 0 2 4 4 5 4 3 5 6 5 5 5 5 4 5 6 7 7 6
7 7 7 9 6 7 11 6 0 4 4 5 7 5 3 7 1 8 14 15 17 16 16 16 16 15 14 12 11 10 11 13 11 10 8 10 12 10 8 7 7 7 7 5 7 7 4 4 6 5 4 5 4 5 5 4 5 6 6 7 7 3 1 4 4 5 4 3 4 5 5 5 4 3 4 4 2 1 1 0 3 4 4 5 4 6 6 5 5 6 5 6 6 6 6 6 8
7 5 8 8 10 10 6 4 2 4 3 3 7 4 7 8 5 7 15 15 17 17 16 14 14 15 13 10 10 12 14 14 13 12 10 9 11 11 8 8 8 7 6 7 8 7 5 4 6 6 5 5 5 4 4 4 5 5 6 7 7 6 4 4 5 4 5 5 5 5 6 5 6 5 4 4 4 4 2 1 3 2 2 4 5 6 6 4 5 5 5 5 6 6 6 7 6
8 14 9 9 9 9 5 10 6 5 3 4 8 3 4 9 2 3 11 17 17 17 15 13 14 14 12 10 12 11 13 14 13 10 10 9 8 10 9 9 8 8 7 7 7 6 5 5 5 5 4 5 5 5 3 5 5 5 6 7 7 7 7 6 5 4 4 5 4 4 4 3 3 4 4 4 3 3 3 2 3 2 1 3 4 7 6 5 4 5 5 6 6 6 6 5 3
9 7 10 12 9 11 9 5 4 4 3 2 7 5 5 9 3 7 10 16 18 19 17 15 13 11 12 13 12 10 10 10 11 10 12 10 8 8 8 9 9 8 7 7 6 7 7 7 6 5 4 4 5 4 4 5 4 4 6 6 6 7 7 5 5 3 2 2 3 4 4 3 3 3 5 5 5 4 3 5 5 3 1 2 3 6 6 5 5 6 6 6 6 6 7 6 4
8 9 6 8 13 10 6 5 5 5 1 4 3 6 6 5 8 9 15 18 20 20 18 16 15 15 14 12 11 9 8 8 8 9 8 8 7 7 9 8 9 8 4 7 9 8 8 8 7 5 5 5 6 6 5 5 5 5 5 5 5 6 7 6 4 2 3 4 4 5 5 6 5 6 7 7 7 6 6 5 4 2 3 5 4 5 5 2 2 5 7 6 6 5 4 5 4
7 6 4 5 2 8 7 6 4 5 2 7 5 5 8 5 10 6 15 17 19 19 17 15 14 13 13 10 9 9 7 8 9 9 8 8 8 8 10 8 9 7 6 7 8 8 6 5 5 5 5 4 3 4 4 4 4 4 4 4 5 5 4 5 5 5 5 5 4 4 6 5 4 4 5 6 6 7 6 6 6 6 7 6 4 4 3 3 1 3 7 7 6 6 5 5 5
3 4 4 4 4 3 4 6 4 6 6 10 5 5 8 6 12 6 10 16 18 16 15 14 13 12 12 10 9 8 7 8 9 9 9 9 8 8 8 8 8 8 8 8 8 7 6 5 5 5 5 4 4 3 4 4 4 4 4 4 5 4 4 3 4 4 4 4 3 3 3 4 5 5 6 6 6 6 6 5 6 6 6 6 5 4 3 2 2 2 3 10 7 3 6 5 5
5 3 5 2 7 2 7 12 6 9 4 10 7 5 8 6 11 6 9 12 15 17 17 15 12 10 11 10 9 8 9 9 10 9 10 8 7 7 7 8 8 9 9 8 8 6 6 4 5 5 5 4 3 4 3 3 4 4 3 4 4 5 4 4 3 3 3 2 3 4 3 3 4 3 3 5 5 5 5 5 5 5 5 5 3 3 3 4 2 3 2 9 2 6 9 7 4
4 7 2 4 7 6 5 10 9 11 4 9 12 6 5 4 14 7 12 12 19 17 18 15 15 14 11 10 8 9 9 9 12 13 14 10 8 5 5 6 7 7 9 9 8 6 5 3 4 6 7 6 4 3 2 2 3 3 3 3 4 3 2 4 4 4 4 4 4 4 3 4 4 4 3 3 4 4 4 4 4 4 4 5 4 3 4 3 3 4 5 8 8 8 6 7 8
6 4 6 3 5 6 8 4 11 12 9 5 10 9 5 5 4 12 11 16 19 19 17 16 13 11 11 10 10 9 9 10 11 9 5 5 7 10 8 8 6 6 8 8 7 7 7 5 3 3 3 3 3 4 4 4 4 3 3 2 1 2 2 2 4 5 4 3 2 4 3 3 3 3 3 3 4 4 4 4 4 4 5 5 5 4 3 3 4 4 5 3 4 5 5 3 5
4 4 5 5 4 6 10 7 9 11 13 7 10 12 10 7 3 14 10 20 20 18 17 16 15 13 11 10 9 10 10 11 8 8 6 1 7 9 7 8 3 1 5 6 6 5 5 4 3 3 3 3 3 3 3 4 3 3 3 1 1 3 3 3 2 2 4 4 4 4 4 5 4 4 3 3 4 4 4 4 4 3 3 4 4 4 3 3 3 5 4 1 2 5 3 5 8
9 6 7 5 5 6 10 8 11 15 11 11 9 12 13 5 5 5 7 14 19 16 15 14 14 13 12 11 10 10 10 10 7 5 7 5 6 7 7 7 7 3 5 6 6 6 6 5 4 3 3 2 2 2 2 3 1 2 4 2 2 3 4 3 4 5 4 5 5 5 5 5 4 4 4 4 5 5 4 4 4 3 3 4 3 3 4 5 5 4 4 2 2 4 4 4 5
9 8 8 11 11 11 12 8 15 15 10 13 10 9 6 4 6 8 5 11 18 17 14 13 12 12 12 11 10 10 10 10 7 6 8 8 9 7 8 9 6 7 6 5 5 4 4 5 4 3 2 2 2 2 1 1 1 0 0 2 2 3 4 4 3 4 5 5 4 5 5 5 4 3 4 4 5 5 4 3 4 4 4 4 4 4 4 4 4 3 4 3 4 4 6 1 5
14 9 8 10 13 11 14 7 18 15 9 10 9 9 8 8 5 7 5 14 18 18 15 15 14 12 12 15 12 11 11 10 11 9 6 8 7 7 9 7 8 6 6 7 4 5 4 3 3 2 1 1 0 1 2 3 1 2 3 3 3 4 5 4 5 4 5 5 5 4 4 4 3 3 3 3 4 4 3 4 4 4 4 4 4 4 3 4 4 3 3 2 3 6 6 2 2
13 9 5 4 10 12 14 8 21 15 11 9 12 9 8 7 5 8 5 9 13 16 17 15 15 14 14 12 12 13 12 11 9 7 6 9 11 10 8 7 6 6 6 5 6 6 5 5 5 3 2 1 1 1 1 1 1 1 1 2 2 2 2 3 3 3 3 5 4 4 3 3 3 4 3 3 3 3 3 4 4 4 5 4 4 5 4 5 5 5 5 5 3 3 3 2 3
9 7 7 9 5 9 8 5 22 14 11 9 12 10 4 6 5 7 7 17 10 13 13 12 15 18 15 13 12 13 13 12 11 9 10 9 11 10 8 7 6 5 5 6 5 5 4 4 4 3 3 3 1 1 1 3 3 1 1 1 2 1 3 2 2 2 2 1 2 4 3 3 4 5 4 4 4 4 5 5 5 4 5 5 6 6 6 7 5 5 5 5 5 4 5 3 4
10 11 8 7 12 11 10 8 17 14 9 7 9 4 3 6 7 8 12 18 16 14 17 16 13 12 14 13 11 11 13 13 11 11 9 10 11 9 8 7 6 6 5 5 4 4 3 4 3 3 3 4 5 5 5 3 2 1 2 4 3 4 3 4 4 5 4 4 3 4 6 4 4 4 4 4 5 5 5 6 5 5 5 5 5 6 7 7 6 6 6 6 7 7 5 3 3
10 11 12 13 14 14 7 10 18 8 8 4 13 3 1 0 7 9 10 15 15 13 17 13 12 11 13 14 12 11 11 10 11 11 8 9 12 10 10 8 6 4 5 5 5 6 5 4 3 2 1 1 1 1 1 1 1 1 1 3 4 4 5 4 5 6 6 5 6 5 4 5 6 5 5 5 6 6 5 3 3 3 5 5 6 6 6 5 5 6 7 7 8 7 7 6 4
9 10 13 16 16 17 12 10 11 9 8 7 10 10 2 1 5 5 10 17 16 12 15 12 11 9 10 9 9 11 10 10 11 11 9 11 11 10 9 7 7 6 5 4 4 4 5 5 4 4 2 4 4 5 6 2 1 1 0 1 2 4 5 5 4 4 5 5 5 5 6 5 6 6 5 5 5 5 4 5 6 5 6 6 6 6 7 7 7 7 6 7 7 6 6 7 7
11 12 9 12 15 16 16 11 10 7 4 5 7 8 8 4 4 6 11 18 16 15 12 11 10 10 10 9 8 9 10 9 10 10 10 10 10 8 9 6 8 7 6 7 7 7 8 7 6 7 6 7 7 7 7 8 5 2 1 2 2 4 3 4 3 2 3 3 2 3 3 4 4 4 4 4 4 3 3 4 6 7 7 7 6 7 7 6 5 5 7 8 6 7 8 8 8
9 9 11 12 13 16 13 5 7 9 7 0 8 8 8 6 5 8 14 16 16 16 13 13 12 11 11 11 10 11 10 9 9 10 10 9 9 8 7 7 7 8 7 6 6 7 6 6 6 7 8 7 6 7 7 8 6 6 6 5 4 4 3 4 5 4 3 2 4 4 3 2 2 3 4 3 3 3 3 6 4 5 6 6 6 6 7 7 8 7 7 7 8 8 8 8 7
10 10 11 12 10 9 5 5 9 10 9 6 9 12 5 2 4 6 8 13 15 15 13 14 14 13 11 10 11 11 10 9 9 10 10 9 7 8 7 7 9 7 6 6 6 5 5 5 6 6 7 5 5 6 7 7 7 6 6 6 6 5 5 5 5 6 5 3 4 5 3 2 3 4 4 3 3 4 4 5 6 8 7 6 7 8 7 6 6 6 7 8 8 9 8 8 9
5 13 12 11 12 4 1 2 2 6 7 8 13 14 10 5 8 9 10 9 17 14 10 9 12 12 11 10 11 10 9 8 8 9 9 8 7 8 7 8 7 7 7 6 6 5 4 5 4 6 5 5 5 6 7 7 7 7 7 7 8 8 9 7 7 7 6 6 5 5 5 5 2 1 4 4 4 3 4 5 4 3 4 6 6 7 5 5 5 5 5 6 8 9 8 9 8
8 8 9 8 8 2 1 1 5 4 4 6 12 12 15 6 7 10 6 16 22 19 18 16 14 13 11 9 9 10 9 8 8 8 8 8 8 9 7 7 7 6 6 6 5 5 5 5 5 4 4 4 5 6 7 7 6 7 8 8 9 8 8 7 8 7 6 7 6 5 5 5 6 6 4 5 5 4 3 4 4 5 4 5 5 5 5 4 4 5 5 6 6 6 6 7 8
11 8 6 8 2 3 4 3 4 5 10 6 8 10 6 4 2 3 15 21 16 18 18 18 18 15 14 11 9 7 7 8 8 7 7 7 7 7 7 6 6 4 5 4 5 3 3 3 3 3 5 6 6 5 5 4 5 6 7 7 6 6 7 7 6 7 5 6 6 6 5 4 3 2 3 5 5 6 4 3 2 1 4 5 4 4 5 5 6 6 6 5 4 6 6 8 8
14 13 7 7 5 5 5 3 3 2 1 5 9 6 2 2 2 10 9 9 13 16 16 15 16 16 14 11 9 8 7 7 7 6 7 7 8 7 7 6 5 5 4 5 4 2 1 3 5 8 8 8 7 6 5 4 4 4 4 4 4 4 5 6 6 6 5 5 5 5 5 5 5 4 4 4 4 3 6 4 1 1 2 4 3 7 7 7 7 7 6 6 8 8 8 9 10
12 10 8 5 2 3 4 2 6 6 3 4 6 4 1 5 2 1 10 13 15 16 16 15 16 14 13 11 10 9 9 6 6 7 7 7 7 6 6 6 5 4 3 3 1 0 1 3 5 7 7 6 6 6 6 6 4 5 6 6 6 5 5 5 5 6 6 7 6 4 5 5 5 5 5 5 1 2 6 4 3 2 4 5 6 6 7 7 6 6 7 7 7 7 7 7 8
10 6 4 5 7 3 4 4 5 6 5 4 3 3 3 5 3 8 12 13 14 16 17 16 15 13 12 11 10 8 8 7 7 8 7 5 5 5 5 4 3 1 0 1 1 1 2 4 6 6 6 4 4 4 4 4 6 5 5 5 4 4 5 5 6 7 8 7 7 6 6 5 4 4 5 4 4 5 4 5 3 3 5 6 7 6 7 6 7 7 8 7 8 6 7 8 8
7 6 8 8 4 2 2 2 1 6 8 2 1 6 5 5 6 8 12 14 15 15 15 15 15 13 12 11 10 9 7 8 7 8 6 7 6 5 4 3 2 1 1 1 2 3 3 5 6 5 3 2 3 1 2 3 3 4 4 4 5 5 5 9 8 9 9 8 8 7 6 6 6 5 5 4 3 4 4 4 6 5 5 4 5 5 5 6 6 6 7 8 8 6 7 9 9
4 8 6 2 4 3 4 4 1 3 5 1 0 6 8 8 2 5 9 14 12 12 13 14 13 12 12 10 9 8 8 9 9 8 7 5 4 5 4 3 3 2 2 3 2 2 5 4 4 4 2 1 1 1 1 2 4 2 3 4 5 5 5 7 7 8 8 8 9 9 8 8 7 7 5 5 4 5 4 4 4 4 4 5 5 5 5 4 6 6 7 6 6 5 6 6 6
7 10 6 6 5 8 2 3 3 5 4 1 2 7 7 7 8 12 12 13 12 13 14 14 13 12 12 11 10 9 9 8 8 7 6 5 4 4 3 3 2 2 2 3 3 4 5 4 4 3 3 2 2 1 1 1 3 4 3 4 4 5 5 6 5 5 6 8 9 9 10 9 9 8 7 6 6 5 5 5 4 4 4 5 5 5 4 4 5 6 6 6 6 6 6 8 7
5 4 7 7 2 4 4 4 3 8 3 4 4 9 2 3 3 10 15 16 17 16 14 13 14 12 11 10 9 8 8 8 8 7 6 5 5 3 3 3 2 3 4 4 5 6 6 4 4 5 7 6 7 5 3 4 4 6 7 4 4 4 4 6 7 7 6 8 8 9 10 10 10 9 9 9 7 5 4 5 4 4 4 5 5 4 4 6 6 6 5 5 7 8 8 8 7
6 4 5 7 4 4 4 2 5 4 4 7 7 5 3 2 9 13 12 13 16 15 13 11 11 11 11 11 9 7 8 7 6 6 6 4 4 3 3 2 2 3 4 5 6 6 5 4 5 7 8 8 7 6 4 6 5 6 7 7 7 8 7 8 7 9 8 8 8 8 9 9 9 9 10 11 11 10 7 5 5 4 4 4 4 3 3 4 6 6 6 3 4 6 6 6 6
3 5 5 7 9 4 9 3 1 2 4 4 7 4 1 1 3 7 13 12 13 13 15 13 12 11 11 10 9 10 8 7 5 5 3 3 3 3 4 4 4 5 5 6 6 5 5 6 6 7 6 6 6 8 6 5 6 6 7 8 9 9 8 10 9 9 10 9 9 9 10 10 10 9 10 10 12 10 11 10 7 5 5 5 4 4 4 4 6 6 5 5 5 7 7 6 6
Wind_Direction
292 287 272 260 248 248 347 248 57 292 110 237 251 269 256 235 240 268 280 357 51 8 30 65 66 52 87 105 103 82 29 89 288 127 170 110 102 105 112 114 112 110 114 115 116 117 117 121 122 121 123 126 127 129 129 125 121 118 116 114 111 110 109 108 104 100 103 106 104 104 103 106 102 92 91 94 97 102 106 106 103 103 103 102 102 102 102 100 94 90 87 84 84 85 85 82 83
293 291 264 246 260 239 308 181 104 307 297 263 248 248 247 266 318 274 129 99 84 147 56 63 84 98 101 111 112 80 47 49 61 88 88 110 109 107 113 114 119 115 116 119 119 120 120 124 125 126 128 131 131 132 128 125 121 119 118 115 112 111 111 109 105 99 102 107 106 107 106 104 101 93 94 97 98 102 103 106 103 102 102 103 102 99 95 92 89 87 87 87 86 86 84 84 83
318 342 329 261 262 210 285 335 222 219 233 254 261 223 257 269 220 84 69 112 128 134 93 81 75 101 107 99 55 87 88 79 83 83 105 123 111 120 116 115 116 119 121 120 122 123 123 129 131 131 133 134 133 132 129 124 122 120 118 116 114 114 113 113 108 102 94 108 109 109 108 102 99 96 95 97 100 99 100 104 106 99 98 97 94 90 87 84 89 93 92 90 88 87 86 88 89
326 277 245 327 320 120 294 306 176 204 238 229 279 264 259 297 229 102 71 85 99 70 93 84 70 46 88 77 95 91 103 80 102 116 115 113 113 122 119 120 123 121 116 121 123 126 127 133 134 133 133 133 133 131 126 123 121 120 120 118 117 118 117 117 113 111 106 107 111 112 111 109 105 102 101 101 101 98 93 93 92 97 96 94 89 86 87 88 90 94 96 96 93 89 92 96 91
319 274 222 266 215 283 179 201 203 177 235 228 229 263 271 265 148 79 94 323 97 102 74 102 90 68 73 94 118 91 118 120 109 87 90 94 115 122 125 127 128 125 120 122 124 124 131 134 133 131 132 133 130 127 125 122 122 122 122 123 123 123 126 124 124 120 118 117 108 108 112 112 115 111 107 104 101 103 100 101 95 89 87 80 78 75 77 87 98 97 93 89 89 91 95 95 83
263 282 240 159 208 199 355 296 251 239 232 221 251 259 234 56 105 128 156 61 71 58 108 98 115 108 72 58 58 124 151 130 117 98 108 121 119 127 129 130 123 114 125 125 123 120 127 130 131 130 130 130 127 125 123 127 129 128 130 130 131 133 134 134 132 130 126 125 113 103 98 101 110 121 114 109 109 110 112 102 96 94 91 90 89 87 88 94 99 97 93 90 86 87 87 74 65
272 19 309 158 283 340 197 230 258 249 253 232 244 256 281 274 79 14 82 70 353 35 94 113 107 96 93 104 51 20 94 117 118 118 116 122 118 122 130 115 112 120 118 117 115 117 124 128 128 126 126 128 129 128 131 134 136 136 136 138 140 140 139 139 136 133 129 123 113 101 95 100 105 115 119 116 114 113 110 102 93 90 85 87 87 87 85 86 87 87 87 86 90 87 72 50 36
251 304 251 124 254 164 245 244 249 248 264 251 263 270 295 83 331 39 353 117 339 119 115 113 100 88 65 73 96 53 71 82 102 109 114 115 116 114 108 116 116 110 107 109 114 124 131 127 129 127 128 133 135 137 138 139 140 140 140 142 143 141 138 138 136 132 131 124 116 107 104 100 104 111 117 119 118 115 111 102 95 89 88 87 89 89 89 88 86 91 94 99 100 93 75 49 27
257 170 266 325 245 266 247 226 244 235 255 255 262 266 257 154 99 61 8 357 196 127 141 113 101 90 111 77 81 94 89 103 103 107 112 117 120 120 116 113 110 107 109 109 112 119 119 121 120 123 130 134 137 137 140 141 140 139 140 140 139 138 139 136 135 131 126 120 114 112 108 106 107 111 117 119 120 118 111 102 97 91 90 91 95 98 99 97 97 96 98 101 101 91 75 60 37
276 178 267 196 178 235 250 259 235 240 236 241 242 247 248 205 113 110 41 338 283 118 117 109 99 108 106 98 106 97 111 110 107 98 106 116 123 113 99 95 104 108 104 104 106 107 116 123 112 116 122 130 136 138 139 141 137 137 135 136 138 139 135 130 126 125 127 124 118 115 111 103 100 106 113 115 116 118 110 100 96 93 89 90 95 100 101 101 98 96 99 98 91 77 64 52 45
262 198 199 288 261 262 242 259 249 265 252 261 248 212 141 146 128 157 158 230 278 101 99 101 91 111 98 89 85 99 99 113 113 112 108 108 95 95 93 92 98 106 108 106 107 114 117 118 123 119 124 129 132 133 133 133 127 126 129 135 138 137 130 122 126 129 129 130 126 114 106 102 104 105 109 111 113 114 114 100 94 95 92 89 98 104 102 98 99 97 91 93 92 84 65 47 33
262 245 140 203 244 219 251 251 260 267 263 254 261 193 165 108 88 48 115 210 229 173 140 108 140 108 88 116 115 114 108 110 114 110 104 84 88 95 94 96 100 99 103 108 110 112 119 124 130 135 132 131 133 134 133 131 132 134 137 141 137 131 118 122 123 123 131 133 115 105 106 103 103 99 97 100 103 110 108 104 98 96 94 91 95 101 106 104 98 98 99 96 88 79 69 45 12
221 233 229 205 222 221 253 263 265 270 278 268 209 195 132 104 125 154 270 226 257 193 146 120 134 103 121 114 125 112 119 139 108 106 96 92 92 86 84 97 103 101 103 106 112 118 121 123 138 141 142 144 139 140 140 138 138 139 141 138 135 122 125 126 123 111 105 99 104 109 102 95 94 95 90 94 99 109 113 114 102 96 93 94 96 104 109 111 107 104 107 99 93 90 65 25 358
213 209 191 254 249 243 247 255 266 283 277 266 104 113 110 98 86 143 245 280 237 109 125 126 111 103 107 117 122 129 136 117 107 99 95 93 92 88 89 93 98 101 107 115 116 126 132 135 141 143 144 138 139 142 143 141 144 142 139 134 126 118 120 114 109 108 104 106 109 107 104 97 92 84 86 90 100 104 92 111 105 94 96 91 98 105 120 118 117 118 121 121 112 112 94 2 340
227 231 243 234 263 289 256 260 262 266 266 289 262 74 99 86 136 190 230 239 269 114 110 94 126 107 181 141 159 147 138 123 110 108 98 92 89 89 96 99 99 108 114 117 131 142 144 146 146 143 140 134 126 120 131 152 148 139 137 138 126 122 114 113 112 114 114 110 106 102 101 95 89 87 80 68 73 81 86 83 99 90 88 96 97 110 124 131 128 130 136 147 159 193 207 314 330
208 239 221 254 260 243 265 261 270 270 273 157 240 125 97 179 127 136 240 78 30 70 114 133 197 110 157 148 139 137 134 118 110 102 100 95 92 94 100 99 95 100 123 138 152 153 150 146 141 140 139 137 138 148 151 148 152 144 141 139 133 127 117 107 109 123 123 116 112 107 103 91 80 68 91 83 87 53 63 61 77 81 82 84 103 123 135 136 147 145 146 163 179 194 222 246 288
225 198 265 262 268 256 249 247 261 276 234 291 303 124 142 149 73 282 123 91 73 58 62 67 87 116 125 121 125 132 121 112 110 108 104 102 100 98 97 97 97 107 138 161 168 151 145 134 136 138 143 150 154 150 129 127 148 145 135 136 135 131 118 110 116 133 127 122 109 100 81 63 56 33 16 16 58 15 338 2 180 126 66 66 110 138 141 164 163 160 158 177 199 212 225 232 246
197 216 206 252 239 257 243 246 269 255 30 343 2 188 160 133 163 207 84 85 92 77 72 71 79 84 105 114 122 124 121 118 120 117 114 114 116 111 109 119 125 139 156 159 146 126 122 129 143 148 148 151 140 115 119 125 138 133 123 130 121 124 125 115 106 111 120 91 112 95 80 81 97 103 32 324 42 323 318 312 201 165 354 314 84 184 182 188 188 174 179 193 219 238 252 277 290
201 202 187 234 224 251 281 266 294 314 348 295 311 6 9 229 169 167 128 110 100 83 83 92 89 93 102 110 118 122 125 124 123 121 123 124 121 122 126 137 148 160 153 109 84 122 135 135 151 144 139 134 129 120 128 136 136 135 132 125 115 106 115 105 105 109 90 98 93 113 110 40 71 157 172 162 193 212 167 249 212 213 275 280 252 224 227 213 200 194 197 204 219 242 269 286 281
220 190 217 237 241 267 275 295 299 44 26 12 16 322 316 177 166 168 178 139 112 117 117 104 111 114 113 119 121 127 130 127 125 125 121 126 123 129 138 147 163 169 115 114 145 133 128 129 144 131 139 135 125 125 122 139 147 139 127 114 101 99 98 98 98 77 98 135 119 82 70 106 184 54 329 218 177 137 44 215 213 217 246 267 258 273 256 237 220 216 215 212 227 254 268 281 287
174 217 226 238 235 246 258 265 260 127 62 23 351 320 338 184 320 160 179 127 129 142 142 134 136 133 129 130 132 131 135 126 127 129 132 128 132 138 140 153 156 109 106 116 117 103 92 93 105 121 124 125 124 124 135 148 146 130 123 112 111 113 116 94 70 49 45 58 75 91 95 177 281 56 79 349 135 146 146 131 5 331 341 305 267 302 296 288 243 244 231 224 234 243 256 261 268
219 206 228 251 266 264 281 319 305 70 65 44 318 14 312 315 349 359 16 99 278 146 132 127 133 135 134 136 135 138 138 123 130 137 139 140 134 123 104 91 82 89 104 138 157 95 77 84 85 96 99 100 119 131 141 142 123 105 115 107 99 69 74 73 92 99 82 92 122 143 151 174 182 125 83 207 340 142 174 185 190 201 240 233 210 239 254 253 237 244 233 230 232 241 245 257 257
241 257 236 236 246 266 284 276 302 75 135 177 58 349 311 352 326 58 83 85 94 113 124 125 125 128 126 125 131 134 137 124 124 132 135 122 117 137 127 133 132 126 139 156 112 89 97 96 81 93 94 86 86 102 115 122 107 91 90 88 82 92 78 81 112 141 130 130 138 155 152 188 111 93 148 176 166 10 188 199 209 194 210 216 213 215 241 232 217 233 236 230 232 235 242 241 252
195 242 239 248 238 250 266 276 357 54 50 325 29 356 348 316 344 84 95 107 101 105 111 114 116 116 122 127 133 137 139 116 137 130 121 119 130 131 136 132 123 126 133 136 93 96 116 102 83 92 103 103 108 104 105 113 111 96 92 93 71 81 77 112 198 154 137 147 157 155 169 185 142 163 199 156 178 177 176 236 218 211 199 207 210 212 234 228 214 229 235 230 227 236 242 241 236
201 217 253 272 266 242 241 268 116 74 3 329 317 337 297 278 252 96 104 108 110 108 111 114 116 118 121 128 134 125 102 115 132 110 101 99 109 114 109 105 114 125 138 126 112 109 97 103 98 100 115 121 124 119 114 114 105 107 108 102 86 86 142 209 225 130 159 196 183 163 182 177 160 176 190 185 144 155 189 223 288 247 209 202 208 224 228 234 221 225 230 232 226 240 246 259 252
212 220 221 250 269 276 270 258 194 138 125 261 293 284 292 277 337 118 122 122 117 118 111 111 111 114 121 122 109 107 107 110 113 112 112 108 114 116 121 120 127 134 154 133 115 111 122 120 121 141 149 141 127 102 125 106 105 110 105 111 132 134 215 219 231 193 178 180 196 184 195 177 161 175 172 154 152 185 192 174 235 262 279 240 207 220 232 237 234 243 239 235 241 244 252 253 237
188 213 216 235 247 264 259 242 206 161 156 174 230 198 264 282 231 113 141 130 121 115 112 114 115 118 117 103 102 101 105 115 118 120 107 106 108 115 122 123 127 137 144 135 116 119 132 134 142 157 154 133 112 110 109 101 108 117 122 130 136 151 187 211 225 205 180 191 178 193 204 190 165 147 158 170 160 178 184 181 217 207 234 303 280 233 225 235 247 240 246 245 254 257 258 263 264
257 223 218 230 247 261 271 300 274 135 167 205 189 241 225 262 219 150 152 134 126 119 121 123 123 115 108 103 98 101 101 110 119 117 120 119 125 126 124 126 131 138 152 135 121 131 149 155 157 158 138 126 119 131 135 131 135 150 139 133 147 167 172 191 220 228 204 170 183 194 180 171 160 155 171 180 182 182 195 213 216 187 173 209 293 288 254 227 243 249 244 251 253 254 257 276 290
269 263 258 222 225 248 261 254 236 127 183 198 167 250 244 233 220 159 155 140 136 130 130 131 118 111 105 99 102 102 110 104 108 116 124 123 127 125 121 129 135 140 133 114 124 139 141 153 154 141 127 123 134 145 149 151 153 152 136 149 172 181 179 180 200 212 220 207 200 196 189 183 180 175 175 184 184 182 181 206 215 125 197 196 211 260 282 269 284 270 246 244 245 227 247 269 283
269 262 247 256 248 228 232 256 227 140 186 186 169 237 249 228 225 171 163 145 138 135 132 129 120 115 111 110 105 99 93 100 98 113 123 125 123 125 127 133 138 136 126 113 120 130 145 146 127 123 128 136 139 133 149 142 147 144 132 150 178 188 194 174 180 182 194 213 206 189 183 181 187 184 174 178 176 183 187 190 192 174 213 205 189 207 251 270 123 346 296 247 226 216 222 238 256
217 265 226 203 215 259 223 225 191 181 163 210 182 211 260 234 219 190 166 142 138 137 127 114 112 113 114 112 110 105 92 104 102 102 109 111 116 117 121 121 123 121 112 115 126 139 145 137 139 132 140 157 156 156 170 168 149 143 149 160 175 180 179 190 198 196 199 207 184 196 192 192 202 201 183 178 180 177 179 186 188 198 193 193 193 176 202 227 129 117 317 289 282 352 289 245 230
242 265 256 227 180 253 222 199 198 193 181 206 189 225 236 221 216 165 164 142 115 107 115 116 113 112 112 113 114 107 104 97 94 90 92 106 114 118 119 120 123 123 122 128 129 139 141 151 152 147 154 173 171 180 191 152 139 143 164 169 188 198 190 192 210 213 209 203 186 194 202 210 210 221 201 176 175 172 168 180 189 184 186 185 177 173 178 220 183 119 123 276 254 251 246 271 245
217 193 200 236 170 227 295 199 189 196 203 201 188 223 231 229 211 147 175 126 118 120 122 123 120 116 110 105 106 106 97 77 55 34 16 12 17 16 65 103 121 117 122 131 138 139 145 164 164 150 164 176 168 188 176 127 123 138 149 162 199 228 201 166 196 202 200 203 212 212 200 206 205 204 212 192 166 160 166 172 189 182 179 186 188 189 186 205 213 166 193 230 223 208 234 252 353
250 181 217 202 191 186 242 215 197 188 215 192 186 224 219 239 238 156 168 124 120 123 124 123 120 117 118 115 113 108 92 77 71 64 7 331 74 67 42 27 14 96 117 119 125 133 140 146 152 143 133 151 166 160 157 149 138 137 146 180 214 261 266 243 186 171 174 200 211 223 219 215 206 200 197 178 173 177 171 172 186 178 175 179 190 193 200 186 204 205 216 276 16 337 260 161 239
210 210 196 244 255 199 215 207 180 187 205 218 188 219 246 247 217 161 159 127 125 129 132 131 131 129 123 116 112 96 91 94 100 130 164 312 62 61 71 78 71 105 94 111 113 109 111 112 101 117 99 77 90 101 110 91 90 120 129 111 299 282 274 263 234 196 179 187 207 216 211 212 209 196 195 187 180 183 176 170 178 196 187 184 185 205 201 205 214 190 198 112 176 200 268 270 204
229 193 174 201 233 236 234 208 177 182 191 214 203 204 229 258 197 161 141 123 127 129 131 133 133 127 121 122 114 105 104 105 122 124 136 94 79 79 58 60 62 65 84 88 91 96 94 85 79 72 92 106 94 84 67 76 77 125 147 156 226 270 274 251 216 201 191 189 202 202 208 210 209 199 196 198 190 185 184 180 181 187 177 163 175 206 219 206 210 176 151 150 214 256 255 275 297
244 226 180 196 220 243 246 226 171 182 182 208 212 211 187 207 165 157 157 103 122 127 134 135 134 131 131 123 116 117 112 114 125 109 88 99 101 107 98 78 47 64 63 68 91 89 92 108 110 113 151 137 110 90 64 120 148 240 106 164 209 227 234 245 233 217 213 209 199 202 201 198 196 205 204 196 200 199 192 183 174 178 179 180 183 206 213 216 202 170 140 150 188 222 250 241 52
242 237 205 196 207 231 242 226 168 180 173 212 213 199 176 218 152 161 145 108 130 137 141 143 140 126 115 114 115 107 107 101 99 90 117 125 121 110 107 135 146 138 130 132 133 119 121 113 110 149 202 157 103 174 213 197 206 173 161 197 193 205 223 231 240 214 212 217 214 206 203 188 189 202 214 202 202 196 198 192 183 186 186 196 204 194 203 187 192 187 147 152 198 204 224 136 180
247 243 254 231 211 221 237 227 167 176 178 199 202 186 193 199 149 156 148 128 141 147 152 146 128 114 111 108 104 104 108 111 110 129 154 113 98 90 86 78 72 80 89 99 121 129 124 127 141 158 177 127 175 207 155 238 298 296 158 210 187 223 215 201 209 212 196 219 223 214 208 195 186 206 213 211 203 203 211 210 206 200 200 193 199 205 201 197 186 186 182 174 176 211 219 153 168
243 247 236 243 246 211 235 188 172 174 182 183 194 193 207 176 148 146 98 82 85 70 80 108 118 121 112 110 112 110 107 109 113 116 106 94 96 86 82 79 78 77 65 57 57 89 108 127 158 171 170 156 208 243 217 232 232 237 0 287 297 279 263 308 333 318 305 200 215 202 210 204 205 210 203 207 213 209 204 216 218 205 207 195 194 200 201 208 196 189 181 187 165 190 202 192 164
242 236 232 237 249 238 213 156 177 172 203 156 151 85 117 144 109 105 89 94 87 83 84 79 70 81 98 101 95 102 111 111 110 104 102 106 97 98 100 91 79 70 63 61 60 69 83 73 90 120 158 177 195 186 184 205 185 42 352 346 356 348 338 320 316 301 273 257 245 230 231 207 206 206 194 204 217 220 211 209 208 201 202 196 195 203 207 206 193 187 184 178 189 190 200 168 188
245 239 227 235 246 263 235 167 155 170 206 215 144 70 160 31 127 122 115 96 95 104 95 89 94 88 92 95 101 99 96 103 106 105 99 88 85 78 73 75 77 66 62 46 39 42 39 33 36 47 45 0 316 281 191 146 71 78 36 354 342 328 303 298 270 256 265 250 234 232 243 222 218 219 213 215 221 217 206 217 242 220 206 203 197 204 208 207 195 185 189 185 196 202 184 178 187
227 236 219 232 244 254 272 172 149 171 178 214 159 137 224 321 135 120 109 102 104 94 94 99 92 82 84 90 98 105 100 87 78 78 82 87 85 84 77 81 80 67 45 49 54 48 41 22 10 6 11 352 337 8 3 32 26 58 120 271 240 261 255 261 243 250 258 251 223 221 227 221 215 216 218 217 220 220 210 203 221 229 228 213 205 201 206 208 201 193 181 190 196 184 169 193 193
228 233 221 226 233 246 249 223 182 170 195 134 140 139 145 168 249 149 120 110 101 91 91 92 92 94 100 99 89 88 92 94 94 91 90 87 87 85 86 73 73 66 55 48 42 39 40 28 38 42 43 35 24 24 16 15 22 5 228 230 229 238 268 275 289 260 273 282 257 222 214 221 217 216 230 223 213 218 210 211 220 234 234 218 209 211 213 203 208 195 186 195 190 188 192 195 197
221 237 229 235 228 237 246 262 182 177 150 106 127 112 120 183 208 157 132 120 110 113 111 108 103 100 95 92 88 88 87 90 95 94 88 86 90 91 84 75 69 61 50 49 48 44 36 30 33 49 43 33 25 27 23 11 10 14 21 8 16 356 341 326 322 324 305 284 276 272 248 241 198 223 225 224 226 206 205 233 224 261 243 233 217 223 221 211 207 200 192 192 195 197 200 203 193
219 240 243 244 240 238 232 244 174 164 153 176 153 151 124 205 223 161 149 136 131 129 127 119 117 114 112 107 101 97 95 90 87 91 89 85 87 87 86 77 65 61 52 49 43 40 35 25 34 51 46 37 27 33 26 20 20 21 25 10 13 4 353 344 355 347 345 338 324 305 277 250 209 207 222 222 238 226 227 227 219 225 238 241 232 227 215 210 214 211 208 206 201 197 200 198 201
183 230 249 258 247 229 215 129 267 108 169 200 166 162 128 168 211 177 172 167 132 129 119 116 116 113 110 107 105 105 102 99 101 98 96 96 91 84 79 75 72 60 53 46 39 32 30 25 34 50 41 42 38 38 33 27 21 18 20 17 20 11 2 1 358 352 347 348 341 339 341 323 329 349 299 264 219 219 215 219 236 280 267 263 256 246 236 226 215 217 222 222 216 206 200 203 204
207 216 223 260 277 255 356 331 179 148 242 218 176 179 145 155 217 193 164 129 140 137 135 133 127 122 116 103 103 104 100 102 97 94 96 101 91 81 75 74 69 66 60 55 41 30 14 16 23 41 37 41 41 43 43 34 29 25 18 20 21 16 12 5 357 347 349 352 344 344 335 354 3 358 331 318 284 259 236 228 211 224 238 247 260 264 251 242 239 226 217 219 232 234 228 215 209
212 214 206 196 259 129 230 111 217 179 193 209 173 158 165 151 262 239 140 142 142 137 136 135 130 125 118 111 106 97 93 95 91 86 87 80 78 76 71 61 58 58 66 62 59 41 8 7 13 48 33 31 36 45 48 38 37 32 25 22 17 13 11 2 352 342 346 4 351 344 338 337 297 267 287 311 312 282 271 265 280 294 267 257 258 278 260 249 257 252 236 215 215 241 234 223 219
200 211 184 179 194 183 187 204 155 260 236 157 180 156 172 116 21 1 101 105 116 115 112 118 120 124 119 114 111 107 97 97 98 96 87 80 77 71 68 60 56 52 54 64 64 45 2 9 25 53 48 39 36 28 19 21 35 40 35 21 16 20 14 0 349 341 344 1 345 335 327 317 312 286 269 247 253 335 323 289 223 228 271 288 264 239 247 235 233 242 233 216 215 224 228 232 229
207 212 183 155 151 164 181 144 175 196 216 164 157 142 281 119 219 328 91 103 105 105 110 111 112 110 109 108 109 108 107 107 108 99 96 94 87 86 78 71 55 44 46 62 102 179 345 28 73 70 58 47 44 28 16 6 18 40 35 19 4 3 10 359 349 346 350 349 336 330 321 321 318 306 293 283 282 217 257 281 244 187 200 240 244 237 229 238 234 254 256 236 219 200 212 221 230
218 194 154 201 226 146 141 189 144 156 128 148 62 72 26 81 73 71 89 92 97 106 110 114 112 116 118 118 117 115 112 107 99 93 90 86 100 99 89 87 102 79 2 139 116 19 58 94 76 73 72 63 57 39 22 22 35 24 27 2 5 3 5 8 4 4 356 348 339 345 335 327 309 297 297 297 307 292 255 255 273 236 227 234 243 237 230 226 232 236 244 236 229 203 210 226 229
207 171 201 210 181 137 125 56 127 99 108 29 148 117 83 105 47 79 101 102 111 115 118 118 122 126 123 117 118 121 120 114 100 91 80 79 73 76 103 122 100 60 17 44 101 71 85 78 84 77 98 105 103 123 87 79 67 48 10 3 12 14 28 17 7 2 357 352 348 350 345 340 325 320 310 309 290 261 272 256 252 251 243 235 239 241 240 241 237 235 242 234 233 217 215 224 218
134 204 223 203 225 199 124 174 292 93 137 213 344 141 154 149 182 144 119 116 119 121 120 120 120 120 115 116 121 126 120 109 108 102 95 89 85 86 89 86 95 84 42 52 67 29 55 99 98 107 93 99 71 28 42 102 91 68 42 35 29 21 28 27 15 10 359 2 1 354 349 349 345 328 319 315 320 308 293 282 274 271 257 246 239 242 248 260 257 243 231 237 235 218 224 235 232
164 198 153 169 176 241 234 121 185 137 135 165 115 165 178 195 160 156 155 135 138 133 130 125 126 123 120 123 120 119 114 109 104 100 91 87 83 90 99 125 143 156 127 96 56 45 73 85 83 85 49 6 24 44 94 58 67 51 32 34 38 30 38 29 21 20 15 12 4 355 348 345 339 335 328 324 322 315 310 302 289 282 275 265 261 253 239 227 234 233 235 241 243 228 225 228 230
228 145 173 188 134 191 146 198 160 114 139 98 139 175 248 227 168 171 156 150 148 141 138 137 132 128 122 117 119 112 109 101 98 106 108 103 101 93 116 133 111 91 89 62 49 50 57 73 63 40 26 20 21 31 66 60 50 50 36 31 30 37 32 28 23 15 20 18 10 357 352 349 345 342 344 333 316 305 298 295 287 279 275 270 264 252 230 251 254 248 236 215 229 221 225 218 218
225 173 185 187 213 186 139 241 179 149 146 150 131 184 232 305 169 173 162 148 146 144 137 131 126 122 119 120 119 114 104 105 113 115 118 139 150 158 124 93 72 61 68 66 58 55 46 46 49 44 35 20 19 29 42 61 57 49 45 29 20 20 31 29 26 20 21 17 10 2 360 347 347 356 350 352 347 336 319 303 296 293 292 291 288 277 240 245 261 270 266 253 259 254 243 226 205
205 180 198 183 185 161 183 277 219 125 123 153 133 179 125 323 347 144 140 139 139 140 128 125 124 122 122 118 111 109 109 105 102 97 98 133 131 125 101 67 41 57 66 67 59 50 40 43 50 48 30 17 18 16 34 47 47 48 45 34 33 37 36 28 29 22 19 14 12 10 1 360 356 354 353 354 353 349 344 332 314 313 303 290 286 288 282 253 255 259 247 263 231 223 231 227 211